Regional Weather Roundup
Issued by NWS

Home | Current Version | Previous Version | Text Only | Print | Product List | Glossary Off
Versions: 1 2 3 4 5 6 7 8 9 10 11 12 13 14 15 16 17 18 19 20 21 22 23 24 25 26 27 28 29 30 31 32 33 34 35 36 37 38 39 40 41 42 43 44 45 46 47 48 49 50

000
ASUS44 KMEG 310600
RWRTN
TENNESSEE HOURLY STATE WEATHER ROUNDUP
NATIONAL WEATHER SERVICE MEMPHIS TN
1200 AM CST SAT JAN 31 2015

TNZ002-004-019-021-049-052-054-088>092-310700-
WEST TENNESSEE

CITY           SKY/WX    TMP DP  RH WIND       PRES   REMARKS
MEMPHIS INTL   MOCLDY    38  25  59 NE6       30.41F WCI  33
NWS MEMPHIS      N/A     31 N/A N/A MISG        N/A
JACKSON        PTCLDY    27  22  81 CALM      30.42F
DYERSBURG      MOCLDY    34  14  44 NE6       30.44F WCI  29
UNION CITY     CLEAR     25  21  86 CALM      30.42F
PARIS          CLEAR     27  19  74 E3        30.42F
LEXINGTON      CLEAR     25  19  80 CALM      30.41S
SAVANNAH       CLEAR     25  21  86 CALM      30.41F
$$

TNZ008-025-027-028-033-062-065-066-310700-
NORTH MIDDLE TENNESSEE

CITY           SKY/WX    TMP DP  RH WIND       PRES   REMARKS
NASHVILLE      PTCLDY    32  21  64 N5        30.42F WCI  27
CLARKSVILLE    FAIR      26  21  81 CALM      30.43F
COOKEVILLE     CLEAR     19  18  93 NE3       30.39F
CROSSVILLE     CLEAR     26  17  68 N6        30.36F WCI  19
$$

TNZ061-075-076-078-094-096-097-310700-
SOUTH MIDDLE TENNESSEE

CITY           SKY/WX    TMP DP  RH WIND       PRES   REMARKS
FAYETTEVILLE   CLEAR     28  18  64 MISG      30.38F
TULLAHOMA      CLEAR     23  18  80 CALM      30.38F
WINCHESTER     CLEAR     21  18  86 CALM      30.39S
COLUMBIA       CLEAR     25  25 100 CALM      30.40S
SHELBYVILLE    CLEAR     25  21  86 CALM      30.41F
$$

TNZ017-018-042-046-047-310700-
NORTHEAST TENNESSEE

CITY           SKY/WX    TMP DP  RH WIND       PRES   REMARKS
TRI CITIES     CLEAR     21  15  78 CALM      30.37S
ELIZABETHTON   CLEAR     19  12  73 CALM      30.36R
$$

TNZ012-013-036-069-073-074-310700-
CENTRAL EAST TENNESSEE

CITY           SKY/WX    TMP DP  RH WIND       PRES   REMARKS
KNOXVILLE      CLEAR     28  17  63 NE7       30.40S WCI  21
OAK RIDGE      CLEAR     30  17  58 E3        30.41F
GATLINBURG     CLEAR     21  18  86 CALM      30.40R
$$

TNZ083-085-099-310700-
SOUTHEAST TENNESSEE

CITY           SKY/WX    TMP DP  RH WIND       PRES   REMARKS
CHATTANOOGA    FAIR      33  21  61 N5        30.40S WCI  29
$$

SKY/WX REPORTED AS FAIR MEANS FEW OR NO CLOUDS BELOW
12 THOUSAND FEET.



USA.gov is the U.S. government's official web portal to all federal, state and local government web resources and services.